Location: Carnières
(50.1682°N, 3.3474°E)
Time: 06:28:39
(UTC+00:00)

MOZ.5/SAFIR/RUBIN 5/SL-8 - Pass Details

Date: 16 August 2024
Orbit: 671 x 698 km, 98.3° (Epoch: 08 September)

Event Time Altitude Azimuth Distance (km) Brightness Sun altitude
Exits shadow 00:55:20 50° 117° (ESE) 885 4.2 -24.7°
Maximum altitude 00:56:14 61° 71° (ENE) 794 4.1 -24.6°
Drops below altitude 10° 01:00:55 10° 352° (N) 2,172 7.2 -24.4°
Sets 01:03:12 0° 349° (N) 3,096 8.1 -24.3°
